Weather History for KBJJ - January, 2014

Change the Weather History Date:

Monday, January 6, 2014

  Actual Average Record
Temperature  
Mean Temperature 11 °F -  
Max Temperature 33 °F 32 °F 57 °F (1998)
Min Temperature -11 °F 20 °F -11 °F (2014)
Degree Days  
Heating Degree Days 54    
Moisture  
Dew Point 4 °F    
Average Humidity 77    
Maximum Humidity 93    
Minimum Humidity 60    
Precipitation  
Precipitation 0.02 in - - ()
Sea Level Pressure  
Sea Level Pressure 29.84 in    
Wind  
Wind Speed 19 mph (West)    
Max Wind Speed 31 mph    
Max Gust Speed 37 mph    
Visibility 5 miles    
Events Rain , Snow    
Averages and records for this station are not official NWS values.
T = Trace of Precipitation, MM = Missing Value Source: NWS Daily Summary

Daily Weather History Graph

Daily Weather History Graph

Search for Another Location

Airport or City:

Trip Planner

Search our weather history database for the weather conditions in past years. The results will help you decide how hot, cold, wet, or windy it might be!

Date:

Astronomy

Jan. 06, 2014 Rise Set
Actual Time 7:52 AM EST 5:14 PM EST
Civil Twilight 7:21 AM EST 5:45 PM EST
Nautical Twilight 6:47 AM EST 6:19 PM EST
Astronomical Twilight 6:14 AM EST 6:53 PM EST
Moon 11:04 AM EST (1/6) 11:49 PM EST (1/6)
Length of Visible Light 10h 24m
Length of Day
9h 22m
Waxing Crescent, 34% of the Moon is Illuminated
Jan 6
Waxing Crescent
Jan 7
First Quarter
Jan 15
Full
Jan 24
Last Quarter
Jan 30
New

Hourly Weather History & Observations

Time (EST) Temp. Windchill Dew Point Humidity Pressure Visibility Wind Dir Wind Speed Gust Speed Precip Events Conditions
12:06 AM 33.8 °F 23.5 °F 30.2 °F 87% 29.37 in 7.0 mi WNW 16.1 mph - 0.01 in Rain Light Rain
12:31 AM 32.0 °F 23.6 °F 30.2 °F 93% 29.36 in 10.0 mi WNW 10.4 mph - 0.02 in   Overcast
12:44 AM 32.0 °F 22.1 °F 30.2 °F 93% 29.38 in 1.8 mi West 13.8 mph - 0.02 in Snow Light Snow
12:50 AM 32.0 °F 19.8 °F 30.2 °F 93% 29.40 in 1.0 mi WNW 20.7 mph - 0.02 in Snow Light Snow
12:56 AM 30.9 °F 18.4 °F 28.9 °F 92% 29.44 in 1.0 mi WNW 20.7 mph 27.6 mph 0.02 in Snow Light Snow
1:05 AM 30.2 °F 17.4 °F 28.4 °F 93% 29.41 in 1.5 mi WNW 20.7 mph 28.8 mph 0.00 in Snow Light Snow
1:22 AM 30.2 °F 17.4 °F 26.6 °F 86% 29.43 in 1.5 mi WNW 20.7 mph 28.8 mph 0.00 in Snow Light Snow
1:33 AM 30.2 °F 17.8 °F 26.6 °F 86% 29.45 in 2.5 mi WNW 19.6 mph 26.5 mph 0.00 in Snow Light Snow
1:37 AM 28.4 °F 12.5 °F 26.6 °F 93% 29.46 in 2.5 mi WNW 31.1 mph 35.7 mph 0.00 in Snow Light Snow
1:45 AM 28.4 °F 14.1 °F 24.8 °F 86% 29.49 in 4.0 mi WNW 24.2 mph 36.8 mph 0.00 in Snow Light Snow
1:53 AM 26.6 °F 11.4 °F 23.0 °F 86% 29.48 in 9.0 mi NW 25.3 mph 35.7 mph 0.00 in   Overcast
1:56 AM 27.0 °F 12.5 °F 23.0 °F 85% 29.51 in 9.0 mi NW 23.0 mph 35.7 mph 0.00 in   Overcast
2:21 AM 24.8 °F 10.3 °F 21.2 °F 86% 29.54 in 7.0 mi NW 20.7 mph 34.5 mph 0.00 in Snow Light Snow
2:56 AM 21.9 °F 5.8 °F 19.0 °F 89% 29.62 in 10.0 mi WNW 23.0 mph 35.7 mph 0.00 in   Overcast
3:12 AM 21.2 °F 4.5 °F 17.6 °F 86% 29.61 in 10.0 mi WNW 24.2 mph 33.4 mph 0.00 in   Overcast
3:56 AM 21.0 °F 6.2 °F 17.1 °F 85% 29.69 in 9.0 mi WNW 18.4 mph 29.9 mph 0.00 in Snow Light Snow
4:36 AM 19.4 °F 4.1 °F 15.8 °F 86% 29.69 in 2.0 mi WNW 18.4 mph 27.6 mph 0.00 in Snow Light Snow
4:56 AM 19.0 °F 3.6 °F 15.1 °F 85% 29.75 in 1.5 mi WNW 18.4 mph - 0.00 in Snow Light Snow
5:12 AM 19.4 °F 4.1 °F 14.0 °F 80% 29.72 in 2.5 mi WNW 18.4 mph 23.0 mph 0.00 in Snow Light Snow
5:23 AM 19.4 °F 4.5 °F 14.0 °F 80% 29.73 in 3.0 mi West 17.3 mph 25.3 mph 0.00 in Snow Light Snow
5:35 AM 19.4 °F 4.5 °F 14.0 °F 80% 29.74 in 2.5 mi West 17.3 mph 21.9 mph 0.00 in Snow Light Snow
5:48 AM 17.6 °F 1.7 °F 12.2 °F 79% 29.74 in 3.0 mi WNW 18.4 mph 29.9 mph 0.00 in Snow Light Snow
5:56 AM 18.0 °F 0.9 °F 12.9 °F 81% 29.79 in 3.0 mi WNW 21.9 mph 32.2 mph 0.00 in Snow Light Snow
6:56 AM 17.1 °F 0.1 °F 12.0 °F 81% 29.83 in 3.0 mi West 20.7 mph 26.5 mph 0.00 in Snow Light Snow
7:56 AM 16.0 °F -1.3 °F 10.9 °F 81% 29.86 in 2.5 mi West 20.7 mph 27.6 mph 0.00 in Snow Light Snow
8:05 AM 14.0 °F -4.3 °F 8.6 °F 79% 29.83 in 1.5 mi West 21.9 mph 33.4 mph 0.00 in Snow Light Snow
8:20 AM 12.2 °F -7.5 °F 6.8 °F 79% 29.84 in 2.0 mi West 24.2 mph 31.1 mph 0.00 in Snow Light Snow
8:27 AM 10.4 °F -7.2 °F 6.8 °F 85% 29.86 in 1.2 mi West 17.3 mph 31.1 mph 0.00 in Snow Light Snow
8:49 AM 8.6 °F -8.3 °F 3.2 °F 79% 29.88 in 3.0 mi West 15.0 mph - 0.00 in Snow Light Snow
8:56 AM 9.0 °F -10.0 °F 3.0 °F 77% 29.92 in 2.0 mi West 19.6 mph 26.5 mph 0.00 in Snow Light Snow
9:08 AM 6.8 °F -12.9 °F 1.4 °F 79% 29.89 in 1.2 mi West 19.6 mph 32.2 mph 0.00 in Snow Light Snow
9:31 AM 6.8 °F -14.3 °F -0.4 °F 72% 29.90 in 1.0 mi West 23.0 mph 35.7 mph 0.00 in Snow Light Snow
9:37 AM 6.8 °F -13.8 °F -0.4 °F 72% 29.90 in 2.0 mi West 21.9 mph 31.1 mph 0.00 in Snow Light Snow
9:54 AM 5.0 °F -13.6 °F -0.4 °F 78% 29.91 in 1.5 mi West 16.1 mph - 0.00 in Snow Light Snow
9:56 AM 5.0 °F -15.2 °F -0.0 °F 80% 29.96 in 1.2 mi West 19.6 mph 25.3 mph 0.00 in Snow Light Snow
10:26 AM 3.2 °F -18.6 °F -2.2 °F 78% 29.92 in 1.5 mi West 21.9 mph 28.8 mph 0.00 in Snow Light Snow
10:39 AM 3.2 °F -17.1 °F -2.2 °F 78% 29.91 in 2.5 mi West 18.4 mph - 0.00 in Snow Light Snow
10:56 AM 3.0 °F -14.8 °F -4.0 °F 73% 29.97 in 2.0 mi West 13.8 mph 32.2 mph 0.00 in Snow Light Snow
11:04 AM 3.2 °F -15.9 °F -2.2 °F 78% 29.93 in 3.0 mi West 16.1 mph 24.2 mph 0.00 in Snow Light Snow
11:13 AM 3.2 °F -15.9 °F -4.0 °F 72% 29.93 in 2.5 mi West 16.1 mph 25.3 mph 0.00 in Snow Light Snow
11:27 AM 1.4 °F -20.5 °F -5.8 °F 72% 29.93 in 1.8 mi West 20.7 mph - 0.00 in Snow Light Snow
11:34 AM 1.4 °F -18.8 °F -5.8 °F 72% 29.93 in 3.0 mi WSW 17.3 mph - 0.00 in Snow Light Snow
11:54 AM 1.4 °F -19.9 °F -7.6 °F 66% 29.93 in 10.0 mi West 19.6 mph 28.8 mph 0.00 in   Overcast
11:56 AM 1.0 °F -20.9 °F -7.1 °F 69% 29.99 in 10.0 mi West 20.7 mph 28.8 mph 0.00 in   Overcast
12:25 PM -0.4 °F -22.3 °F -7.6 °F 72% 29.93 in 6.0 mi West 19.6 mph 31.1 mph 0.00 in Snow Blowing Snow
12:56 PM -0.9 °F -23.5 °F -9.0 °F 69% 30.00 in 6.0 mi West 20.7 mph 29.9 mph 0.00 in   Haze
1:56 PM -2.0 °F -26.4 °F -11.0 °F 66% 30.01 in 10.0 mi West 24.2 mph 28.8 mph N/A   Mostly Cloudy
2:56 PM -2.9 °F -26.1 °F -13.0 °F 62% 30.05 in 10.0 mi West 20.7 mph 25.3 mph N/A   Overcast
3:36 PM -4.0 °F -27.0 °F -14.8 °F 60% 30.00 in 10.0 mi West 19.6 mph 26.5 mph N/A   Scattered Clouds
3:56 PM -5.1 °F -29.0 °F -15.0 °F 62% 30.09 in 10.0 mi WSW 20.7 mph 27.6 mph N/A   Mostly Cloudy
4:56 PM -7.1 °F -32.7 °F -15.0 °F 68% 30.12 in 6.0 mi WSW 23.0 mph 32.2 mph N/A   Haze
5:29 PM -7.6 °F -33.4 °F -16.6 °F 65% 30.05 in 10.0 mi West 23.0 mph 33.4 mph N/A   Scattered Clouds
5:51 PM -7.6 °F -33.4 °F -16.6 °F 65% 30.06 in 10.0 mi West 23.0 mph 32.2 mph N/A   Mostly Cloudy
5:56 PM -9.0 °F -36.3 °F -17.0 °F 68% 30.14 in 10.0 mi West 25.3 mph 29.9 mph N/A   Mostly Cloudy
6:56 PM -9.0 °F -35.8 °F -18.0 °F 65% 30.18 in 10.0 mi West 24.2 mph 32.2 mph N/A   Overcast
7:56 PM -11.0 °F -37.4 °F -20.0 °F 64% 30.22 in 10.0 mi West 21.9 mph 34.5 mph N/A   Mostly Cloudy
8:56 PM -11.0 °F -37.4 °F -20.0 °F 64% 30.24 in 7.0 mi West 21.9 mph 32.2 mph N/A   Overcast
9:40 PM -11.2 °F -38.2 °F -18.4 °F 70% 30.16 in 2.0 mi West 23.0 mph 31.1 mph 0.00 in Snow Light Snow
9:53 PM -11.2 °F -38.7 °F -20.2 °F 64% 30.16 in 7.0 mi West 24.2 mph 31.1 mph 0.00 in   Overcast
9:56 PM -11.0 °F -36.8 °F -20.0 °F 64% 30.26 in 8.0 mi West 20.7 mph 31.1 mph 0.00 in   Overcast
10:56 PM -11.9 °F -38.0 °F -20.0 °F 67% 30.27 in 6.0 mi West 20.7 mph 27.6 mph N/A   Haze
11:56 PM -11.0 °F -39.0 °F -20.0 °F 64% 30.27 in 5.0 mi West 25.3 mph 31.1 mph N/A   Haze